Location: Unspecified
(0.0000°N, 0.0000°E)
Time: 14:46:10
(UTC+00:00)

SR - All Passes

Search period start: 21 July 2017 00:00
Search period end: 31 July 2017 00:00
Orbit: 576 x 881 km, 66.7° (Epoch: 20 July)

Date Brightness Start Highest point End Pass type
(mag) Time Alt. Az. Time Alt. Az. Time Alt. Az.
21 Jul - 06:22:23 10° SSW 06:28:06 89° WNW 06:34:02 10° NNE daylight
21 Jul - 17:12:12 10° ENE 17:12:59 10° ENE 17:13:45 10° ENE daylight
21 Jul - 18:51:04 10° NW 18:54:47 28° WSW 18:58:25 10° S visible
22 Jul - 05:33:29 10° S 05:38:45 39° ESE 05:44:11 10° NE visible
22 Jul - 07:17:02 10° WSW 07:20:40 17° WNW 07:24:22 10° NNW daylight
22 Jul - 18:01:06 10° NNW 18:05:28 90° ENE 18:09:40 10° SSE daylight
23 Jul - 04:45:56 10° SSE 04:49:23 16° ESE 04:52:55 10° ENE visible
23 Jul - 06:25:53 10° SW 06:31:14 40° WNW 06:36:43 10° N daylight
23 Jul - 17:12:20 10° N 17:16:06 28° ENE 17:19:45 10° SE daylight
23 Jul - 18:57:25 10° WSW 18:57:49 10° WSW 18:58:13 10° WSW visible
24 Jul - 05:36:05 10° SSW 05:41:50 87° ESE 05:47:46 10° NNE visible
24 Jul - 18:04:40 10° NW 18:08:28 30° WSW 18:12:11 10° S daylight
25 Jul - 04:47:15 10° S 04:52:28 36° ESE 04:57:50 10° NE visible
25 Jul - 06:30:32 10° WSW 06:34:23 18° WNW 06:38:18 10° NNW daylight
25 Jul - 17:14:48 10° NNW 17:19:09 83° ENE 17:23:21 10° SSE daylight
26 Jul - 03:59:51 10° SE 04:03:07 15° ESE 04:06:25 10° ENE visible
26 Jul - 05:39:31 10° SW 05:44:57 42° WNW 05:50:31 10° N visible
26 Jul - 16:26:08 10° NNE 16:29:47 26° ENE 16:33:19 10° SE daylight
26 Jul - 18:10:17 10° W 18:11:30 11° WSW 18:12:42 10° SW daylight
27 Jul - 04:49:48 10° SSW 04:55:34 82° ESE 05:01:29 10° NNE visible
27 Jul - 17:18:17 10° NW 17:22:09 33° WSW 17:25:57 10° S daylight
28 Jul - 04:01:02 10° S 04:06:12 34° ESE 04:11:29 10° NE visible
28 Jul - 05:44:03 10° WSW 05:48:06 19° WNW 05:52:13 10° NNW visible
28 Jul - 16:28:30 10° NNW 16:32:49 76° ENE 16:37:01 10° SSE daylight
29 Jul - 03:13:49 10° SE 03:16:50 14° ESE 03:19:52 10° ENE visible
29 Jul - 04:53:10 10° SW 04:58:40 45° WNW 05:04:18 10° N visible
29 Jul - 15:39:56 10° NNE 15:43:27 24° ENE 15:46:52 10° SE daylight
29 Jul - 17:23:31 10° W 17:25:11 12° WSW 17:26:49 10° SW daylight
30 Jul - 04:03:31 10° SSW 04:09:17 77° ESE 04:15:12 10° NNE visible
30 Jul - 16:31:54 10° NW 16:35:50 35° WSW 16:39:42 10° S daylight
